Regional Weather Roundup
Issued by NWS

Home | Current Version | Previous Version | Text Only | Print | Product List | Glossary Off
Versions: 1 2 3 4 5 6 7 8 9 10 11 12 13 14 15 16 17 18 19 20 21 22 23 24 25 26 27 28 29 30 31 32 33 34 35 36 37 38 39 40 41 42 43 44 45 46 47 48 49 50

000
ASUS43 KMPX 250501
RWRMN
WEATHER ROUNDUP FOR MINNESOTA
NATIONAL WEATHER SERVICE TWIN CITIES/CHANHASSEN MN
1200 AM CDT FRI MAY 25 2018


NOTE: "FAIR" INDICATES FEW OR NO CLOUDS BELOW 12,000 FEET WITH NO
SIGNIFICANT WEATHER AND/OR OBSTRUCTIONS TO VISIBILITY. N/A MEANS
CURRENT SKY AND/OR WEATHER CONDITIONS ARE NOT AVAILABLE.

MNZ060>063-068>070-250600-
   Twin Cities Metro

CITY           SKY/WX    TMP DP  RH WIND       PRES   REMARKS
TWIN CITIES    CLOUDY    69  65  86 SE13      29.89S
ST PAUL        FAIR      67  63  87 SE12      29.89R
CRYSTAL        FAIR      72  60  66 SE14G21   29.86F
BLAINE         FAIR      72  63  73 SE12G17   29.87S
LAKEVILLE      FAIR      66  66 100 E3        29.90S
EDEN PRAIRIE   FAIR      70  64  81 SE10      29.87F
SOUTH ST PAUL  FAIR      67  66  95 SE5       29.90S
LAKE ELMO      TSTM      68  64  88 SE13G28   29.92R
$$
MNZ001>005-007-008-013>017-022>024-027-028-250600-
   Northwest Minnesota

CITY           SKY/WX    TMP DP  RH WIND       PRES   REMARKS
BEMIDJI        FAIR      74  60  61 S8        29.74R
HALLOCK        FAIR      70  55  60 W5        29.64R
ROSEAU         FAIR      70  63  78 S9        29.65F
WARROAD        FAIR      64  61  88 S7        29.67F
THIEF RVR FALL FAIR      68  63  84 S8        29.70R
CROOKSTON      FAIR      73  59  60 SW9       29.68R
FOSSTON        FAIR      70  61  73 S10       29.72S
DETROIT LAKES  FAIR      73  61  64 S12       29.78S
MOORHEAD       FAIR      72  61  68 SW7       29.73S
PARK RAPIDS    FAIR      72  60  66 S13       29.77S
MAHNOMEN       FAIR      72  62  70 S13       29.73R
$$
MNZ006-009>011-018-025>026-250600-
   North Central Minnesota

CITY           SKY/WX    TMP DP  RH WIND       PRES   REMARKS
BAUDETTE       FAIR      72  66  81 S8        29.68S
FLAG ISLAND    MOCLDY    66  63  88 SW16G22   29.67R
INTL FALLS     FAIR      62  62 100 SE6       29.72F
WASKISH          N/A     72  66  83 CALM      29.71R
BIG FORK       FAIR      70  66  88 S3        29.75S
LONGVILLE      FAIR      75  61  60 S3        29.77F
GRAND RAPIDS   FAIR      71  65  81 S7        29.80S
CRANE LAKE     FAIR      64  63  94 CALM      29.77F FOG
ORR            FAIR      64  63  94 SE6       29.74S
COOK           FAIR      66  66 100 S6        29.77F
WALKER         FAIR      73  59  61 S8        29.76R
$$
MNZ012-019>021-037-250600-
   Northeast Minnesota

CITY           SKY/WX    TMP DP  RH WIND       PRES   REMARKS
DULUTH         FAIR      61  58  90 SE5       29.83S
ELY            FAIR      66  63  88 S5        29.80F
HIBBING        FAIR      66  63  90 VRB5      29.79F
EVELETH        FAIR      66  63  88 CALM      29.82F
DULUTH HARBOR  FOG       48  48 100 CALM      29.84S VSB 1/4
TWO HARBORS    FAIR      61  55  82 CALM      29.81F
SILVER BAY     FAIR      61  61 100 CALM      29.81F
G MARAIS ARPRT CLOUDY    61  57  88 CALM      29.87F FOG
$$
MNZ029>031-032-039>041-046>048-054>057-064-250600-
   West Central Minnesota

CITY           SKY/WX    TMP DP  RH WIND       PRES   REMARKS
FERGUS FALLS   FAIR      72  63  73 S10       29.73S
MORRIS         PTCLDY    72  63  73 SW7       29.80F
ALEXANDRIA     FAIR      73  62  68 S10       29.83S
ELBOW LAKE     FAIR      70  63  77 S10       29.81R
WADENA         FAIR      70  61  73 S12       29.78S
GLENWOOD       FAIR      64  63  94 S5          N/A
APPLETON       MOCLDY    75  61  60 S7        29.81F
BENSON         MOCLDY    70  63  78 SW6       29.83F
ORTONVILLE     CLOUDY    72  61  68 S5        29.81F
MADISON        PTCLDY    75  63  64 CALM      29.82F
WILLMAR        FAIR      72  61  68 S5        29.86F
$$
MNZ033>034-036-042>043-049>051-058-059-250600-
   Central Minnesota

CITY           SKY/WX    TMP DP  RH WIND       PRES   REMARKS
ST CLOUD       FAIR      67  58  72 SE7       29.84F
SAUK CENTRE    FAIR      66  61  84 SE5       29.83S
PAYNESVILLE    FAIR      69  63  80 SE9       29.84F
PINE RIVER     FAIR      70  55  60 S5        29.81F
BRAINERD       FAIR      71  57  61 S13       29.80R
STAPLES        FAIR      66  55  68 S7        29.79S
LONG PRAIRIE   FAIR      64  61  88 SE7       29.83R
LITTLE FALLS   FAIR      68  59  73 S7        29.82S
LITCHFIELD     FAIR      72  66  83 SE5       29.86F
BUFFALO        FAIR      69  61  75 SE8       29.87S
MAPLE LAKE     FAIR      70  64  80 S6        29.87S
HUTCHINSON     FAIR      69  66  92 SE5       29.88S
$$
MNZ037-044-045-052-053-250600-
   East Central Minnesota

CITY           SKY/WX    TMP DP  RH WIND       PRES   REMARKS
PRINCETON      FAIR      70  63  78 SE7       29.85S
MORA           FAIR      66  55  68 SW3       29.86F
CAMBRIDGE      FAIR      72  59  64 SE7       29.85F
RUSH CITY      FAIR      67  60  79 S9        29.85F
MOOSE LAKE     FAIR      70  61  73 S5        29.80F
HINCKLEY       FAIR      68  61  77 SW5       29.85S
CLOQUET        FAIR      59  55  88 CALM      29.83S FOG
MCGREGOR       FAIR      72  61  68 S6        29.80F
$$
MNZ071>073-080-081-089-090-097-098-250600-
   Southwest Minnesota

CITY           SKY/WX    TMP DP  RH WIND       PRES   REMARKS
MONTEVIDEO     CLOUDY    73  63  68 SW3       29.83S
CANBY          CLOUDY    75  62  63 SW3       29.84F
MARSHALL       MOCLDY    72  62  71 SW6       29.86S
REDWOOD FALLS  CLOUDY    71  63  75 S5        29.86R
OLIVIA         MOCLDY    70  64  83 SE7       29.85S
PIPESTONE      CLOUDY    66  57  72 W3        29.89S
WINDOM         CLOUDY    73  52  46 S8        29.88R
WORTHINGTON    MOCLDY    71  62  73 S13       29.90S
JACKSON        MOCLDY    72  63  73 S12G17    29.90S
TRACY          CLOUDY    73  61  66 SW5       29.88S
SLAYTON        MOCLDY    73  55  53 S7        29.89S
$$
MNZ065>067-074>077-082>085-091>093-250600-
   South Central Minnesota

CITY           SKY/WX    TMP DP  RH WIND       PRES   REMARKS
MANKATO        FAIR      76  56  49 S8        29.88F
NEW ULM        CLOUDY    73  59  60 S8        29.88S
ST JAMES       CLOUDY    73  57  56 SE16      29.89R
FAIRMONT       CLOUDY    72  59  63 S15       29.90F
GLENCOE        FAIR      70  70 100 S3        29.87S
FARIBAULT      LGT RAIN  70  63  78 CALM      29.89F
OWATONNA       RAIN      70  61  73 S18       29.94R
WASECA         DRIZZLE   72  54  53 SE15      29.90F
ALBERT LEA     LGT RAIN  68  57  68 SW5G12    29.94F
$$
MNZ078>079-086>088-094>096-250600-
   Southeast Minnesota

CITY           SKY/WX    TMP DP  RH WIND       PRES   REMARKS
ROCHESTER      FAIR      73  62  68 SW10      29.96R
RED WING       MOCLDY    70  63  78 SE7       29.91F
STANTON        LGT RAIN  71  64  79 S13G18    29.89F
DODGE CENTER   MOCLDY    70  59  68 SW14G21   29.96S
WINONA         CLOUDY    73  64  73 W3        29.94S
AUSTIN         FAIR      72  57  60 S3        29.95F
PRESTON        FAIR      75  59  58 SW10      29.98R
$$
ABBREVIATIONS USED IN REMARKS
   TC - TEMPERATURES IN CELSIUS
  WCI - WIND CHILL INDEX
   HX - HEAT INDEX
  VSB - VISIBILITY
$$



USA.gov is the U.S. government's official web portal to all federal, state and local government web resources and services.